Regional Weather Roundup
Issued by NWS

Home | Current Version | Previous Version | Text Only | Print | Product List | Glossary Off
Versions: 1 2 3 4 5 6 7 8 9 10 11 12 13 14 15 16 17 18 19 20 21 22 23 24 25 26 27 28 29 30 31 32 33 34 35 36 37 38 39 40 41 42 43 44 45 46 47 48 49 50

000
ASUS43 KLOT 241803
RWRIL

ILLINOIS REGIONAL WEATHER ROUNDUP
NATIONAL WEATHER SERVICE CHICAGO/ROMEOVILLE IL
1200 PM CST FRI FEB 24 2017

NOTE: "FAIR" INDICATES FEW OR NO CLOUDS BELOW 12,000 FEET WITH NO
SIGNIFICANT WEATHER AND/OR OBSTRUCTIONS TO VISIBILITY.

* THESE STATIONS ARE NOT UNDER NWS QUALITY CONTROL. THEY ALSO MAY NOT
  REPORT WEATHER SUCH AS PRECIPITATION OR FOG.

ILZ001-002-007-009-015-016-024-241900-
NORTHWEST ILLINOIS

CITY           SKY/WX    TMP DP  RH WIND       PRES   REMARKS
MOLINE         CLOUDY    41  36  82 N8        29.50R HAZE
6HR MIN TEMP:  41; 6HR MAX TEMP:  42;

STERLING*      LGT RAIN  39  38  96 N10       29.48R FOG     WCI  32
$$

ILZ003-004-008-010-011-017-018-241900-
NORTH CENTRAL ILLINOIS

CITY           SKY/WX    TMP DP  RH WIND       PRES   REMARKS
ROCKFORD       CLOUDY    38  35  89 NE16      29.49F WCI  29
6HR MIN TEMP:  38; 6HR MAX TEMP:  39; 6HR PCP:  0.01;

FREEPORT*      CLOUDY    34  33  96 N13G18    29.52R FOG     WCI  25
ROCHELLE*      CLOUDY    39  37  95 NE13      29.45F WCI  31
DE KALB*       CLOUDY    38  38  97 NE13      29.45F WCI  31
PERU*          CLOUDY    44  42  93 NE7       29.45R FOG
$$

ILZ005-006-012>014-019>023-241900-
NORTHEAST ILLINOIS

CITY           SKY/WX    TMP DP  RH WIND       PRES   REMARKS
CHICAGO-OHARE  LGT RAIN  39  37  92 N13       29.46F FOG     WCI  31
6HR MIN TEMP:  39; 6HR MAX TEMP:  40; 6HR PCP:  0.05;

CHICAGO-MIDWAY DRIZZLE   40  37  89 N10       29.46S FOG
6HR MIN TEMP:  40; 6HR MAX TEMP:  42; 6HR PCP:  0.01;

AURORA         CLOUDY    40  38  93 NE13      29.45S
6HR MIN TEMP:  40; 6HR MAX TEMP:  41; 6HR PCP:  0.02;

LANSING*       CLOUDY    41  41 100 NE7       29.46S FOG
JOLIET*        CLOUDY    45  44  96 N7        29.44S FOG
WAUKEGAN       CLOUDY    36  35  96 N14G23    29.46F FOG     WCI  27
6HR MIN TEMP:  36; 6HR MAX TEMP:  37; 6HR PCP:  0.01;

DUPAGE AIRPORT LGT RAIN  39  36  89 NE13      29.45F FOG     WCI  31
6HR MIN TEMP:  38; 6HR MAX TEMP:  39; 6HR PCP:  0.02;

KANKAKEE*      CLOUDY    65  57  76 SW16      29.43F
WHEELING       CLOUDY    37  35  92 N13       29.48F FOG     WCI  29
6HR MIN TEMP:  37; 6HR MAX TEMP:  38; 6HR PCP:  0.03;

MORRIS*        CLOUDY    45  44  95 N8        29.43R FOG
ROMEOVILLE*    CLOUDY    41  41 100 NE7       29.45R FOG
NORTHERLY ISL    N/A     38  37  97 N12         N/A  WCI  30
$$

LMZ740>746-241900-
SOUTHERN LAKE MICHIGAN

STATION/POSITION SKY/WX   TEMP    WIND        PRES    VSBY  WAVE
                          AIR SEA DIR/SP/G                  HT/PER
                          (F)     (DEG/KT/KT) (MB)    (MI)  (FT/S)
HARRISON CRIB              37     340/ 17/ 19   N/A
BURNHAM HARBOR             38     350/ 11/ 14   N/A
CALUMET HARBOR             38     330/ 12/ 16  997.4F
BURNS HARBOR               37     270/  5/  6  998.3F
MICHIGAN CITY              36     220/  9/ 10   N/A
$$

ILZ025>027-034>036-040-047-049-050-058-095>099-241900-
WEST-CENTRAL ILLINOIS

CITY           SKY/WX    TMP DP  RH WIND       PRES   REMARKS
QUINCY         CLOUDY    45  39  79 W20       29.57R
GALESBURG*     CLOUDY    41  41 100 W13       29.51R
MACOMB*        CLOUDY    43  42  97 W15       29.55R
JACKSONVILLE*  CLOUDY    49  44  80 W20G26    29.55S
PITTSFIELD*    CLOUDY    48  44  84 W14G21    29.58S
$$

ILZ028>032-037-038-041>044-048-051>054-059>061-241900-
CENTRAL ILLINOIS

CITY           SKY/WX    TMP DP  RH WIND       PRES   REMARKS
PONTIAC        CLOUDY    66  58  73 SW16G25   29.43S
BLOOMINGTON    PTSUNNY   58  50  75 W26G32    29.46R
DECATUR        CLOUDY    57  49  74 W17G35    29.49R
PEORIA         CLOUDY    50  45  83 W16       29.49R
6HR MIN TEMP:  50; 6HR MAX TEMP:  63;

LACON*         CLOUDY    49  46  90 SW14      29.46R FOG
LINCOLN*       CLOUDY    56  48  76 W7G16     29.50R
SPRINGFIELD    CLOUDY    53  47  79 W18       29.53R
6HR MIN TEMP:  53; 6HR MAX TEMP:  64;

TAYLORVILLE    CLOUDY    55  50  85 W15G24    29.52R
6HR MIN TEMP:  55; 6HR MAX TEMP:  64;

$$

ILZ033-039-045-046-055>057-062-063-241900-
EAST-CENTRAL ILLINOIS

CITY           SKY/WX    TMP DP  RH WIND       PRES   REMARKS
CHAMPAIGN      CLOUDY    68  54  60 SW25G35   29.46F
RANTOUL*       CLOUDY    69  57  67 SW28G36   29.46R
MATTOON        CLOUDY    67  56  67 S14G24    29.50F
PARIS*         CLOUDY    67  57  69 SW23G30   29.52S THUNDER
$$

ILZ079-100>102-241900-
SOUTHWEST ILLINOIS

CITY           SKY/WX    TMP DP  RH WIND       PRES   REMARKS
ALTON          CLOUDY    54  46  76 W23       29.56R
CAHOKIA*       CLOUDY    57  47  69 W9        29.58R
SPARTA*        CLOUDY    67  53  61 SW13      29.56R
$$

ILZ064>066-069>071-074>076-080>082-084>086-088>090-092>094-241900-
SOUTH-CENTRAL ILLINOIS

CITY           SKY/WX    TMP DP  RH WIND       PRES   REMARKS
CARBONDALE     PTSUNNY   68  55  63 S17       29.56S
6HR MIN TEMP:  62; 6HR MAX TEMP:  69;

CAIRO*         PTSUNNY   69  56  62 SW17G23   29.61S
EFFINGHAM*     CLOUDY    69  56  64 S18G24    29.53F
MARION         PTSUNNY   72  55  56 S14G23    29.57F
MT. VERNON     PTSUNNY   69  54  58 S22G28    29.55F
CENTRALIA*     CLOUDY    68  56  64 SW21G28   29.53S
SALEM*         PTSUNNY   70  55  58 S18G25    29.53S
METROPOLIS*    PTSUNNY   73  54  50 S21G29    29.60F
$$

ILZ067-068-072-073-078-083-087-091-241900-
SOUTHEAST ILLINOIS

CITY           SKY/WX    TMP DP  RH WIND       PRES   REMARKS
LAWRENCEVILLE  CLOUDY    70  53  54 SW23G32   29.55F
FLORA*         PTSUNNY   70  55  59 SW18      29.54S
FAIRFIELD*     CLOUDY    69  55  60 S10G16    29.54F
HARRISBURG*    MOSUNNY   69  54  58 SW22G31   29.57F
ROBINSON*      PTSUNNY   68  54  59 SW20G26   29.55R
CARMI*         MOSUNNY   73  55  52 SW22G29   29.56F
$$

ABBREVIATIONS USED IN REMARKS
   TC - TEMPERATURE IN CELSIUS
  WCI - WIND CHILL INDEX
   HX - HEAT INDEX
  VSB - VISIBILITY
$$




USA.gov is the U.S. government's official web portal to all federal, state and local government web resources and services.